Colby, KS

7:53 AM CDT on July 22, 2017 (GMT -0500)
Shaltz

Weather History for KCBK - February, 2013

Change the Weather History Date:

Saturday, February 9, 2013

  Actual Average (KGLD) Record (KGLD)
Temperature  
Mean Temperature 44 °F -  
Max Temperature 57 °F 43 °F 78 °F (1976)
Min Temperature 32 °F 16 °F -22 °F (1933)
Degree Days  
Heating Degree Days 20    
Moisture  
Dew Point 29 °F    
Average Humidity 64    
Maximum Humidity 100    
Minimum Humidity 38    
Precipitation  
Precipitation 0.00 in - - ()
Sea Level Pressure  
Sea Level Pressure 29.63 in    
Wind  
Wind Speed 20 mph (South)    
Max Wind Speed 34 mph    
Max Gust Speed 44 mph    
Visibility 9 miles    
Events Rain    
Averages and records for this station are not official NWS values.
T = Trace of Precipitation, MM = Missing Value Source: NWS Daily Summary

Daily Weather History Graph

Daily Weather History Graph

Search for Another Location

Airport or City:

Trip Planner

Search our weather history database for the weather conditions in past years. The results will help you decide how hot, cold, wet, or windy it might be!

Date:

Astronomy

Feb. 09, 2013 Rise Set
Actual Time 7:43 AM CST 6:14 PM CST
Civil Twilight 7:15 AM CST 6:42 PM CST
Nautical Twilight 6:43 AM CST 7:13 PM CST
Astronomical Twilight 6:12 AM CST 7:45 PM CST
Moon 6:56 AM CST (2/9) 5:59 PM CST (2/9)
Length of Visible Light 11h 27m
Length of Day
10h 31m
Waning Crescent, 0% of the Moon is Illuminated
Feb 9
Waning Crescent
Feb 10
New
Feb 17
First Quarter
Feb 25
Full
Mar 4
Last Quarter

Hourly Weather History & Observations

Time (CST) Temp. Windchill Dew Point Humidity Pressure Visibility Wind Dir Wind Speed Gust Speed Precip Events Conditions
12:15 AM 39.2 °F 28.7 °F 24.8 °F 56% 29.86 in 10.0 mi South 23.0 mph 32.2 mph N/A   Clear
12:35 AM 39.2 °F 28.5 °F 23.0 °F 52% 29.85 in 10.0 mi South 24.2 mph 31.1 mph N/A   Clear
12:55 AM 39.2 °F 28.7 °F 23.0 °F 52% 29.85 in 10.0 mi South 23.0 mph 31.1 mph N/A   Clear
1:15 AM 39.2 °F 29.0 °F 23.0 °F 52% 29.84 in 10.0 mi South 21.9 mph 29.9 mph N/A   Clear
1:35 AM 37.4 °F 27.2 °F 23.0 °F 56% 29.84 in 10.0 mi South 19.6 mph 29.9 mph N/A   Clear
1:55 AM 37.4 °F 27.8 °F 21.2 °F 52% 29.83 in 10.0 mi South 17.3 mph 28.8 mph N/A   Clear
2:15 AM 37.4 °F 27.2 °F 21.2 °F 52% 29.82 in 10.0 mi South 19.6 mph 27.6 mph N/A   Clear
2:35 AM 37.4 °F 27.2 °F 21.2 °F 52% 29.82 in 10.0 mi South 19.6 mph 28.8 mph N/A   Clear
2:55 AM 37.4 °F 27.5 °F 21.2 °F 52% 29.82 in 10.0 mi South 18.4 mph 25.3 mph N/A   Clear
3:15 AM 37.4 °F 28.2 °F 21.2 °F 52% 29.81 in 10.0 mi South 16.1 mph 21.9 mph N/A   Clear
3:35 AM 37.4 °F 27.5 °F 21.2 °F 52% 29.80 in 10.0 mi South 18.4 mph 27.6 mph N/A   Clear
3:55 AM 35.6 °F 24.8 °F 21.2 °F 56% 29.79 in 10.0 mi South 19.6 mph 25.3 mph N/A   Clear
4:15 AM 35.6 °F 24.8 °F 21.2 °F 56% 29.78 in 10.0 mi South 19.6 mph 27.6 mph N/A   Clear
4:35 AM 35.6 °F 24.8 °F 21.2 °F 56% 29.79 in 10.0 mi South 19.6 mph - N/A   Clear
4:55 AM 35.6 °F 25.5 °F 21.2 °F 56% 29.78 in 10.0 mi South 17.3 mph 24.2 mph N/A   Clear
5:15 AM 35.6 °F 25.2 °F 21.2 °F 56% 29.77 in 10.0 mi South 18.4 mph - N/A   Clear
5:35 AM 35.6 °F 24.8 °F 21.2 °F 56% 29.77 in 10.0 mi South 19.6 mph 25.3 mph N/A   Clear
5:55 AM 33.8 °F 23.9 °F 21.2 °F 60% 29.77 in 10.0 mi South 15.0 mph 21.9 mph N/A   Clear
6:15 AM 33.8 °F 23.9 °F 21.2 °F 60% 29.77 in 10.0 mi SSE 15.0 mph - N/A   Clear
6:35 AM 32.0 °F 22.1 °F 21.2 °F 64% 29.77 in 10.0 mi SSE 13.8 mph - N/A   Clear
6:55 AM 32.0 °F 21.2 °F 21.2 °F 64% 29.77 in 10.0 mi SSE 16.1 mph - N/A   Clear
7:15 AM 32.0 °F 21.6 °F 21.2 °F 64% 29.76 in 10.0 mi SSE 15.0 mph - N/A   Clear
7:35 AM 32.0 °F 22.5 °F 21.2 °F 64% 29.77 in 10.0 mi SSE 12.7 mph - N/A   Clear
7:55 AM 32.0 °F 22.1 °F 21.2 °F 64% 29.76 in 10.0 mi SSE 13.8 mph - N/A   Clear
8:15 AM 32.0 °F 22.1 °F 21.2 °F 64% 29.76 in 10.0 mi SSE 13.8 mph - N/A   Clear
8:35 AM 32.0 °F 21.6 °F 23.0 °F 69% 29.75 in 10.0 mi SSE 15.0 mph - N/A   Clear
8:55 AM 32.0 °F 20.8 °F 23.0 °F 69% 29.75 in 10.0 mi SSE 17.3 mph - N/A   Clear
9:15 AM 33.8 °F 23.5 °F 23.0 °F 65% 29.75 in 10.0 mi SSE 16.1 mph - N/A   Clear
9:35 AM 37.4 °F 28.2 °F 23.0 °F 56% 29.74 in 10.0 mi SSE 16.1 mph - N/A   Clear
9:55 AM 39.2 °F 30.5 °F 23.0 °F 52% 29.73 in 10.0 mi SSE 16.1 mph - N/A   Clear
10:15 AM 37.4 °F 27.8 °F 23.0 °F 56% 29.72 in 10.0 mi SSE 17.3 mph - N/A   Clear
10:35 AM 41.0 °F 33.1 °F 23.0 °F 49% 29.71 in 10.0 mi South 15.0 mph 20.7 mph N/A   Mostly Cloudy
10:55 AM 44.6 °F 36.1 °F 24.8 °F 46% 29.71 in 10.0 mi South 21.9 mph 28.8 mph N/A   Mostly Cloudy
11:15 AM 44.6 °F 36.4 °F 26.6 °F 49% 29.70 in 10.0 mi SSE 20.7 mph 26.5 mph N/A   Mostly Cloudy
11:35 AM 50.0 °F - 26.6 °F 40% 29.68 in 10.0 mi South 19.6 mph 33.4 mph N/A   Mostly Cloudy
11:55 AM 50.0 °F - 28.4 °F 43% 29.67 in 10.0 mi South 21.9 mph 33.4 mph N/A   Mostly Cloudy
12:15 PM 51.8 °F - 28.4 °F 41% 29.65 in 10.0 mi South 23.0 mph 29.9 mph N/A   Overcast
12:35 PM 53.6 °F - 30.2 °F 41% 29.64 in 10.0 mi SSE 26.5 mph 29.9 mph N/A   Scattered Clouds
12:55 PM 53.6 °F - 30.2 °F 41% 29.62 in 10.0 mi South 24.2 mph 33.4 mph N/A   Clear
1:15 PM 53.6 °F - 30.2 °F 41% 29.60 in 10.0 mi South 25.3 mph 34.5 mph N/A   Clear
1:35 PM 53.6 °F - 32.0 °F 44% 29.58 in 10.0 mi South 21.9 mph 36.8 mph N/A   Clear
1:55 PM 53.6 °F - 32.0 °F 44% 29.57 in 10.0 mi SSE 25.3 mph 33.4 mph N/A   Clear
2:15 PM 55.4 °F - 32.0 °F 41% 29.55 in 10.0 mi South 26.5 mph 33.4 mph N/A   Clear
2:35 PM 55.4 °F - 32.0 °F 41% 29.54 in 10.0 mi SSE 24.2 mph - N/A   Clear
2:55 PM 55.4 °F - 32.0 °F 41% 29.52 in 10.0 mi South 28.8 mph 35.7 mph N/A   Clear
3:15 PM 57.2 °F - 32.0 °F 38% 29.50 in 10.0 mi SSE 29.9 mph 38.0 mph N/A   Clear
3:35 PM 57.2 °F - 32.0 °F 38% 29.49 in 10.0 mi SSE 29.9 mph 40.3 mph N/A   Clear
3:55 PM 55.4 °F - 32.0 °F 41% 29.49 in 10.0 mi SSE 33.4 mph 41.4 mph N/A   Clear
4:15 PM 55.4 °F - 33.8 °F 44% 29.48 in 10.0 mi SSE 26.5 mph 38.0 mph N/A   Clear
4:35 PM 55.4 °F - 33.8 °F 44% 29.47 in 10.0 mi SSE 29.9 mph 36.8 mph N/A   Clear
4:55 PM 55.4 °F - 33.8 °F 44% 29.46 in 10.0 mi SSE 27.6 mph 40.3 mph N/A   Clear
5:15 PM 53.6 °F - 41.0 °F 62% 29.46 in 10.0 mi SE 26.5 mph 35.7 mph N/A   Clear
5:35 PM 50.0 °F - 41.0 °F 71% 29.45 in 10.0 mi SE 26.5 mph 32.2 mph N/A   Scattered Clouds
5:55 PM 48.2 °F - 41.0 °F 76% 29.45 in 10.0 mi SE 23.0 mph 29.9 mph N/A   Scattered Clouds
6:15 PM 46.4 °F 37.7 °F 41.0 °F 81% 29.45 in 10.0 mi SE 26.5 mph 33.4 mph N/A   Clear
6:35 PM 46.4 °F 36.5 °F 42.8 °F 87% 29.43 in 10.0 mi SSE 34.5 mph 43.7 mph N/A   Scattered Clouds
6:55 PM 44.6 °F 34.9 °F 42.8 °F 93% 29.43 in 7.0 mi SSE 28.8 mph 39.1 mph N/A   Light Drizzle
7:15 PM 44.6 °F 34.7 °F 42.8 °F 93% 29.45 in 5.0 mi SSE 29.9 mph 39.1 mph N/A Rain Light Rain
7:35 PM 42.8 °F 32.9 °F 42.8 °F 100% 29.48 in 3.0 mi SSE 26.5 mph 34.5 mph N/A Rain Light Rain
7:55 PM 44.6 °F 37.4 °F 42.8 °F 93% 29.48 in 5.0 mi SSW 16.1 mph 28.8 mph N/A Rain Rain
8:15 PM 42.8 °F 36.6 °F 42.8 °F 100% 29.48 in 5.0 mi South 11.5 mph - N/A Rain Rain
8:35 PM 41.0 °F 35.8 °F 39.2 °F 93% 29.49 in 7.0 mi WSW 8.1 mph - N/A Rain Rain
8:55 PM 39.2 °F - 39.2 °F 100% 29.47 in 5.0 mi Calm Calm - N/A Rain Light Rain
9:15 PM 39.2 °F - 39.2 °F 100% 29.46 in 7.0 mi Calm Calm - N/A Rain Light Rain
9:35 PM 37.4 °F 30.3 °F 37.4 °F 100% 29.43 in 3.0 mi East 10.4 mph - N/A Rain Light Rain
9:55 PM 37.4 °F 32.8 °F 37.4 °F 100% 29.42 in 10.0 mi SE 5.8 mph - N/A   Mostly Cloudy
10:15 PM 37.4 °F - 37.4 °F 100% 29.41 in 7.0 mi Calm Calm - N/A Rain Light Rain
10:35 PM 37.4 °F 32.8 °F 37.4 °F 100% 29.40 in 4.0 mi WSW 5.8 mph - N/A Rain Rain
10:55 PM 37.4 °F 31.4 °F 37.4 °F 100% 29.40 in 5.0 mi West 8.1 mph - N/A Rain Light Rain
11:15 PM 35.6 °F 25.5 °F 35.6 °F 100% 29.38 in 10.0 mi WNW 17.3 mph - N/A   Overcast
11:35 PM 33.8 °F 21.6 °F 33.8 °F 100% 29.38 in 10.0 mi WNW 23.0 mph - N/A   Overcast
11:55 PM 32.0 °F 19.5 °F 32.0 °F 100% 29.39 in 10.0 mi WNW 21.9 mph 29.9 mph N/A   Overcast